Home   Weather   Kirkland Lake   Past weeks

Flag for Canada Past Weather in Kirkland Lake, Ontario, Canada — Yesterday and Last 2 Weeks

36 °F

Mostly cloudy.

Feels Like: 26 °F
Forecast: 28 / 34 °F
Wind: 15 mph from Northwest

Location: Earlton

Current Time: Oct 25, 2016 at 1:26:15 PM

Latest Report: Oct 25, 2016 at 1:00 PM

Visibility: 9 mi

Pressure: 30.38 "Hg

Humidity: 65%

Dew Point: 25 °F

Location of Kirkland LakeLocation

Past Weather in Kirkland Lake — Graph


Kirkland Lake Temperature Yesterday

Maximum temperature yesterday: 39 °F (at 3:00 PM)
Minimum temperature yesterday: 32 °F (at 6:01 AM)
Average temperature yesterday: 34 °F

High & Low Weather Summary for the Past Weeks

High70 °F (Oct 12, 3:00 PM)100% (Oct 11, 6:00 AM)30.43 "Hg (Oct 11, 6:00 AM)
Low28 °F (Oct 23, 5:00 AM)49% (Oct 16, 3:00 PM)29.25 "Hg (Oct 18, 6:00 AM)
Average44 °F81%29.98 "Hg
* Reported Oct 10 12:00 PM — Oct 25 12:03 PM, Kirkland Lake, Weather by CustomWeather, © 2016

Note: Actual official high and low records may vary slightly from our data, if they occured in-between our weather recording intervals... More about our weather records


Kirkland Lake Weather History for the Previous 24 Hours

Scroll right to see more
Time TempWeatherWind HumidityBarometerVisibility
12:03 PM
Tue, Oct 25
36 °FMostly cloudy.16 mph65%30.37 "Hg9 mi
11:52 AM34 °FLight rain. Overcast.16 mph75%30.37 "Hg9 mi
11:00 AM34 °FOvercast.14 mph70%30.37 "Hg9 mi
10:00 AM34 °FOvercast.16 mph75%30.36 "Hg9 mi
9:47 AM34 °FMostly cloudy.16 mph75%30.35 "Hg9 mi
9:00 AM32 °FMostly cloudy.13 mph80%30.35 "Hg9 mi
8:46 AM32 °FMostly cloudy.15 mph80%30.34 "Hg9 mi
8:00 AM32 °FMostly cloudy.14 mph80%30.32 "Hg9 mi
7:00 AM32 °FMostly cloudy.16 mph75%30.31 "Hg9 mi
6:00 AM32 °FMostly cloudy.15 mph75%30.29 "Hg9 mi
5:00 AM32 °FOvercast.14 mph75%30.27 "Hg9 mi
4:00 AM32 °FOvercast.16 mph75%30.26 "Hg9 mi
3:00 AM32 °FOvercast.12 mph75%30.25 "Hg9 mi
2:00 AM30 °FPassing clouds.12 mph75%30.23 "Hg9 mi
1:00 AM30 °FPassing clouds.10 mph75%30.22 "Hg9 mi
12:00 AM32 °FOvercast.13 mph69%30.21 "Hg9 mi
11:00 PM
Mon, Oct 24
32 °FOvercast.20 mph64%30.22 "Hg9 mi
10:00 PM34 °FOvercast.17 mph65%30.20 "Hg9 mi
9:00 PM34 °FOvercast.13 mph70%30.19 "Hg9 mi
8:00 PM34 °FOvercast.15 mph70%30.18 "Hg9 mi
7:00 PM34 °FMostly cloudy.12 mph75%30.16 "Hg9 mi
6:00 PM34 °FOvercast.15 mph70%30.15 "Hg9 mi
5:00 PM36 °FOvercast.14 mph70%30.14 "Hg9 mi
4:00 PM37 °FPartly sunny.13 mph65%30.11 "Hg9 mi
3:00 PM39 °FOvercast.16 mph65%30.10 "Hg9 mi
2:00 PM37 °FPartly sunny.18 mph60%30.09 "Hg9 mi
1:00 PM37 °FMostly cloudy.16 mph65%30.08 "Hg9 mi
Weather by CustomWeather, © 2016

See weather overviewHow to use our weather pages